Wind_Speed
28 28 29 27 27 28 28 28 27 27 26 26 25 25 23 21 19 19 18 16 14 15 14 12 11 10 9 9 8 8 7 8 9 11 12 13 14 15 17 18 19 19 20 20
31 30 29 28 29 30 30 30 30 30 29 28 26 25 23 21 20 20 20 19 17 16 16 13 12 12 11 10 11 10 10 10 11 11 12 13 14 16 16 16 17 19 20 21
32 30 29 30 30 32 33 32 32 33 32 31 29 27 26 24 23 22 21 21 20 19 16 15 14 13 13 13 12 13 13 13 13 13 13 13 15 16 18 17 17 18 19 20
31 31 31 30 31 32 32 31 31 31 31 31 30 28 27 25 25 24 23 23 21 19 18 17 16 15 14 14 14 14 14 14 14 14 14 15 16 16 18 19 19 20 21 22
31 31 31 31 31 32 32 32 31 30 30 31 32 31 29 28 27 26 26 25 23 21 20 18 17 16 16 16 16 16 15 14 14 14 14 15 16 18 19 19 20 21 22 22
31 30 29 28 29 31 32 32 31 31 31 31 32 33 31 30 29 29 28 27 25 23 21 20 19 18 17 17 17 17 17 16 15 15 15 16 17 18 19 19 20 21 21 23
29 30 29 27 27 29 30 30 30 31 32 32 33 33 32 31 30 28 27 27 26 24 22 21 20 19 19 19 18 18 18 17 17 17 17 18 18 19 19 20 20 20 21 22
28 28 28 26 27 29 30 29 30 30 31 32 32 31 31 30 28 27 26 27 26 24 23 22 22 21 21 20 20 19 19 19 19 19 19 19 20 20 21 21 22 22 22 23
29 27 26 26 26 27 27 28 28 29 30 31 31 30 29 27 25 25 25 25 26 24 23 22 22 22 22 21 21 21 21 21 20 21 21 21 21 21 22 22 23 24 24 26
27 27 27 26 25 26 25 26 27 28 28 28 28 27 26 26 25 25 24 24 25 24 23 23 23 23 22 22 22 22 22 22 22 22 22 22 23 23 24 24 25 26 27 28
25 25 26 25 25 25 25 26 25 25 25 25 25 25 25 24 24 23 23 23 23 23 23 23 23 23 23 23 23 23 22 22 22 22 23 24 24 24 24 25 25 26 27 28
23 22 22 22 23 23 24 24 24 22 22 23 23 23 23 22 23 23 22 22 23 23 23 23 23 23 23 22 22 22 22 22 22 22 23 23 24 24 25 26 26 27 28 29
21 21 20 19 18 19 20 20 20 20 20 21 21 21 21 21 22 22 22 22 22 22 22 22 21 21 21 20 20 20 20 21 21 22 23 23 25 26 27 27 29 30 31 32
20 20 19 17 16 16 16 16 16 17 18 18 18 18 19 19 20 20 20 20 20 20 19 19 19 20 20 19 19 20 20 20 21 22 24 25 26 26 27 28 30 31 33 34
18 17 16 15 14 14 14 14 14 14 14 15 15 16 16 16 16 17 17 18 18 17 17 18 18 18 18 18 18 18 20 21 23 24 25 25 27 28 29 30 32 33 34 35
16 15 14 14 13 13 13 12 12 11 11 11 12 13 13 14 14 14 15 15 15 15 15 15 16 16 16 17 18 19 20 21 22 24 25 26 27 29 30 31 32 33 34 36
13 13 13 12 12 12 11 11 11 10 10 9 10 10 11 12 11 11 12 12 12 13 13 14 15 15 16 17 18 18 19 20 22 24 25 26 28 29 31 32 33 34 35 36
12 11 11 11 10 10 10 11 10 10 9 9 9 9 8 8 9 9 10 10 11 11 12 13 14 14 15 16 17 18 19 21 23 25 26 28 29 30 31 32 33 34 35 36
11 10 10 9 9 8 9 9 8 7 6 6 6 6 6 7 8 9 9 9 9 10 11 11 12 14 14 15 16 17 19 21 23 24 25 27 28 29 31 32 34 35 36 37
10 10 9 8 8 8 8 8 7 6 5 5 5 6 6 6 7 7 8 8 9 10 10 11 12 13 15 16 18 19 21 22 23 25 26 28 29 31 32 33 34 35 36 36
11 11 10 9 8 9 9 8 7 7 6 5 6 6 6 6 6 6 7 7 8 9 10 12 13 15 16 17 18 20 22 23 25 27 28 30 31 32 33 33 34 34 35 35
12 11 10 10 9 9 9 8 7 6 5 5 4 4 4 5 5 6 7 9 10 11 13 13 15 16 17 19 20 22 23 25 27 28 30 31 32 32 33 33 34 34 34 34
12 12 11 11 10 10 9 8 7 6 6 5 5 5 6 6 7 9 10 11 12 13 14 15 17 18 20 22 23 25 26 28 29 30 31 31 32 32 31 32 32 32 31 31
12 12 12 12 11 10 9 8 7 6 6 6 6 7 8 8 9 10 11 12 14 15 17 19 20 22 23 25 26 27 28 29 29 30 30 30 30 29 29 29 29 29 29 29
12 12 12 11 10 9 9 8 7 7 7 7 8 9 10 11 13 14 15 16 17 19 20 22 23 24 25 26 27 28 28 29 28 28 28 28 28 28 28 28 28 28 27 26
11 11 10 9 9 8 8 8 8 9 9 9 11 12 13 15 16 17 18 19 20 22 23 24 25 25 26 27 27 28 28 28 27 26 26 26 26 27 27 27 26 25 25 25
10 9 8 7 7 7 8 8 9 10 11 12 13 15 16 17 18 19 20 21 22 23 24 24 25 25 26 26 26 27 26 26 25 25 25 25 25 26 25 24 24 23 23 23
Wind_Direction
234 236 240 242 243 245 247 249 251 251 252 257 261 264 267 273 278 283 292 294 296 297 296 294 295 288 279 276 267 264 260 253 246 237 234 230 227 225 226 228 232 234 236 238
237 241 244 245 245 247 250 250 251 254 254 256 261 264 268 271 274 281 287 290 289 291 290 288 290 283 279 274 267 262 260 256 246 241 239 236 235 233 232 234 239 238 239 241
241 244 246 247 248 248 248 250 251 252 254 256 260 264 266 268 271 276 281 284 285 288 285 283 285 277 276 272 265 261 259 256 252 248 243 240 239 236 235 238 243 242 244 245
244 242 243 245 247 247 249 250 253 254 257 257 260 263 266 267 270 273 274 276 277 276 275 279 277 275 274 269 262 260 259 259 254 250 246 244 243 241 242 244 247 249 249 251
245 245 245 244 245 248 249 251 253 256 259 260 261 263 265 267 269 272 274 274 274 272 271 273 271 269 267 265 265 263 260 260 260 256 252 252 250 249 250 253 256 257 257 258
246 246 245 242 246 248 250 252 255 257 260 262 262 261 263 266 269 271 272 273 272 271 269 267 268 267 266 265 265 264 261 259 261 258 258 258 260 259 258 260 260 261 262 261
246 246 247 246 246 249 252 254 256 257 259 261 262 263 263 265 267 268 267 268 268 267 265 265 265 264 264 264 264 262 262 259 262 263 261 262 263 263 261 260 262 262 264 265
246 248 250 251 252 252 254 255 256 256 257 260 261 260 262 263 264 263 263 264 265 263 262 262 262 262 262 262 264 262 259 259 260 262 263 264 264 265 265 264 267 268 269 269
248 251 252 253 254 256 256 256 256 256 257 259 260 260 261 261 260 262 263 262 261 260 260 259 259 259 260 260 260 261 261 260 261 262 264 266 267 269 269 267 270 271 270 271
247 249 252 253 256 257 257 258 258 258 258 259 260 259 258 258 258 259 260 258 255 256 257 257 257 257 257 259 261 261 262 262 264 267 268 269 272 273 274 273 274 274 274 275
249 252 254 255 259 261 260 260 259 261 260 259 258 258 258 257 257 258 257 255 253 255 257 258 258 256 257 257 260 262 263 263 264 267 267 269 273 275 275 276 276 277 279 280
248 251 256 260 263 263 262 261 259 260 260 259 258 256 255 254 254 255 256 254 253 255 256 257 257 258 259 260 260 261 263 264 264 268 271 273 275 276 277 279 278 279 280 280
249 254 257 259 260 260 260 258 257 258 258 259 255 253 252 252 252 253 253 252 254 255 255 253 253 255 258 260 263 266 267 267 267 270 273 274 277 279 280 282 282 282 283 284
252 255 257 257 257 256 255 254 255 255 255 254 252 252 252 251 250 250 250 251 252 252 252 252 253 254 256 258 261 264 266 268 270 273 276 277 278 280 281 282 285 286 286 287
249 252 254 254 251 250 251 252 255 251 248 251 253 254 251 248 247 248 247 249 250 249 250 253 254 254 254 256 259 263 268 271 274 276 278 279 280 281 283 285 285 286 287 289
247 249 249 248 245 243 245 249 250 246 245 248 249 247 245 242 243 242 241 243 244 247 248 250 252 255 256 260 263 267 269 272 275 277 278 279 282 284 286 288 288 289 290 291
242 242 243 242 240 240 242 242 238 235 236 240 241 239 235 232 232 233 233 234 237 241 245 248 253 256 259 264 268 271 274 276 279 281 282 284 286 288 288 289 291 292 293 294
233 234 233 231 232 233 233 230 229 230 229 232 233 231 228 225 225 225 227 229 235 238 243 250 256 260 263 268 273 277 279 282 283 285 287 288 290 290 291 292 293 294 294 295
221 221 221 221 220 213 211 210 212 211 210 212 213 215 218 220 222 224 232 238 241 245 251 256 261 265 270 276 281 284 285 287 288 290 291 291 292 292 293 294 294 295 295 296
211 207 203 201 198 194 191 191 192 195 198 203 209 217 220 225 228 235 242 247 252 256 261 269 272 275 281 284 287 290 291 291 292 293 294 294 295 295 296 296 296 297 297 298
200 197 195 195 193 189 189 189 192 194 200 206 210 214 218 221 229 240 249 257 264 270 273 280 285 287 288 290 292 293 294 295 296 297 297 297 298 298 298 298 298 298 299 300
191 194 195 192 189 189 190 193 198 201 206 210 217 222 226 237 249 257 265 274 279 279 281 285 287 289 292 294 296 297 297 297 298 298 298 298 298 298 298 298 299 299 300 301
191 193 193 191 193 195 200 205 209 213 219 225 232 244 254 263 269 273 277 282 285 286 288 291 293 295 296 297 298 299 299 298 298 298 298 298 298 299 299 299 300 301 301 301
189 191 193 197 201 205 209 211 218 227 235 241 248 255 264 270 276 281 284 287 289 291 293 294 295 296 297 298 299 299 299 299 299 299 299 299 300 300 301 301 302 302 302 302
182 186 190 196 202 206 213 221 230 242 248 254 261 269 275 280 283 287 290 292 293 294 295 296 297 298 299 300 300 300 300 300 300 300 300 301 301 302 302 302 302 302 302 303
183 185 187 191 200 209 219 232 244 251 257 264 272 278 282 284 287 289 292 293 295 296 296 297 298 300 301 301 301 301 301 301 301 300 301 302 302 303 303 303 304 304 304 304
188 192 196 203 213 223 234 245 257 264 269 273 278 282 284 286 288 291 293 294 295 296 296 297 298 300 301 302 302 302 303 302 302 302 303 303 304 305 305 305 306 307 307 307
Height
5811 5813 5815 5817 5818 5819 5820 5821 5822 5824 5825 5825 5826 5827 5827 5828 5828 5828 5828 5828 5828 5828 5828 5826 5826 5825 5826 5826 5826 5826 5826 5826 5826 5827 5827 5828 5829 5830 5831 5833 5835 5836 5837 5839
5805 5807 5809 5811 5813 5814 5814 5815 5816 5818 5820 5821 5822 5823 5823 5824 5824 5824 5824 5825 5825 5825 5824 5823 5823 5824 5823 5823 5823 5823 5823 5823 5823 5824 5825 5826 5826 5827 5828 5830 5831 5831 5833 5834
5799 5801 5803 5805 5806 5807 5808 5808 5810 5811 5814 5814 5816 5817 5818 5818 5819 5819 5820 5821 5821 5821 5821 5821 5820 5820 5820 5820 5820 5820 5820 5820 5820 5821 5822 5823 5823 5824 5825 5826 5827 5827 5828 5829
5793 5795 5797 5800 5798 5799 5800 5802 5803 5805 5806 5808 5809 5811 5811 5812 5812 5813 5814 5815 5816 5816 5816 5816 5816 5816 5816 5816 5816 5817 5817 5817 5817 5817 5818 5819 5819 5820 5821 5822 5823 5823 5823 5824
5785 5787 5789 5791 5792 5792 5793 5795 5797 5798 5800 5801 5802 5803 5804 5805 5806 5807 5807 5808 5809 5809 5810 5811 5812 5812 5812 5812 5812 5813 5813 5813 5813 5814 5814 5815 5816 5817 5817 5818 5818 5818 5819 5819
5777 5779 5781 5784 5784 5785 5787 5788 5790 5792 5793 5794 5794 5796 5798 5798 5799 5800 5800 5801 5802 5803 5804 5805 5806 5807 5807 5807 5808 5808 5809 5809 5810 5810 5811 5811 5812 5812 5812 5812 5812 5812 5812 5813
5770 5771 5773 5776 5778 5779 5781 5783 5784 5784 5785 5786 5787 5788 5790 5791 5792 5793 5793 5794 5795 5796 5797 5798 5799 5801 5802 5803 5803 5804 5804 5805 5805 5806 5806 5807 5807 5807 5807 5807 5807 5807 5807 5807
5763 5764 5768 5769 5771 5772 5773 5774 5775 5776 5778 5778 5779 5780 5781 5783 5783 5785 5785 5787 5788 5789 5790 5792 5794 5795 5796 5797 5798 5798 5799 5799 5800 5801 5801 5801 5801 5801 5801 5801 5801 5801 5800 5800
5757 5760 5761 5762 5763 5764 5765 5766 5767 5768 5769 5771 5772 5773 5774 5776 5777 5777 5778 5779 5780 5782 5783 5785 5787 5788 5790 5791 5792 5792 5793 5793 5794 5795 5795 5795 5795 5795 5794 5794 5794 5793 5793 5792
5750 5751 5753 5754 5755 5757 5757 5758 5759 5760 5761 5763 5764 5765 5766 5769 5770 5771 5772 5772 5773 5775 5776 5778 5780 5781 5783 5785 5785 5786 5787 5787 5788 5788 5788 5789 5788 5788 5788 5787 5786 5785 5784 5784
5742 5744 5746 5747 5748 5749 5750 5751 5751 5752 5753 5755 5756 5758 5760 5761 5763 5764 5765 5766 5767 5768 5770 5771 5773 5774 5776 5777 5779 5780 5780 5781 5781 5782 5782 5782 5781 5781 5780 5779 5778 5777 5776 5775
5737 5738 5740 5741 5741 5742 5742 5743 5744 5746 5747 5748 5749 5751 5753 5754 5756 5757 5758 5759 5761 5762 5764 5765 5767 5768 5769 5771 5772 5772 5773 5774 5774 5774 5774 5774 5774 5773 5773 5772 5770 5769 5768 5766
5731 5733 5734 5735 5735 5735 5736 5737 5738 5739 5740 5741 5743 5744 5746 5747 5749 5750 5752 5754 5755 5757 5758 5759 5761 5762 5763 5765 5766 5766 5766 5767 5768 5768 5767 5767 5767 5766 5765 5763 5761 5760 5758 5756
5726 5727 5728 5729 5730 5730 5731 5732 5733 5734 5735 5735 5737 5738 5740 5741 5743 5745 5746 5748 5750 5751 5752 5753 5755 5756 5758 5759 5760 5760 5761 5761 5761 5761 5761 5760 5759 5757 5756 5754 5753 5751 5749 5746
5721 5722 5723 5724 5725 5726 5726 5727 5728 5729 5730 5731 5732 5733 5735 5736 5738 5739 5741 5743 5744 5746 5747 5748 5750 5751 5752 5753 5754 5755 5755 5755 5755 5754 5753 5752 5751 5749 5747 5745 5743 5741 5738 5736
5716 5717 5718 5719 5720 5722 5723 5724 5725 5725 5726 5727 5728 5729 5730 5732 5734 5735 5736 5738 5740 5741 5742 5744 5745 5746 5747 5748 5748 5748 5748 5748 5748 5747 5746 5744 5742 5740 5738 5736 5734 5731 5728 5725
5711 5713 5714 5715 5716 5718 5719 5720 5721 5722 5723 5724 5725 5726 5727 5728 5730 5731 5733 5734 5736 5737 5738 5740 5741 5741 5742 5742 5742 5742 5742 5741 5740 5739 5737 5736 5734 5732 5729 5726 5723 5720 5717 5714
5708 5709 5710 5712 5713 5715 5716 5717 5719 5720 5721 5722 5723 5724 5725 5726 5727 5729 5730 5731 5733 5733 5734 5736 5736 5737 5737 5737 5737 5736 5735 5734 5733 5731 5730 5728 5725 5722 5719 5716 5713 5710 5706 5703
5704 5706 5707 5709 5711 5712 5714 5715 5717 5718 5719 5720 5721 5722 5723 5724 5725 5727 5728 5729 5730 5731 5731 5732 5732 5732 5732 5731 5731 5730 5729 5727 5726 5724 5721 5719 5716 5713 5710 5706 5703 5699 5696 5691
5702 5703 5705 5707 5709 5710 5712 5714 5715 5717 5718 5718 5720 5721 5722 5723 5724 5725 5726 5727 5727 5727 5728 5728 5728 5727 5727 5726 5725 5723 5722 5720 5718 5715 5713 5710 5707 5703 5700 5696 5693 5689 5685 5681
5699 5701 5703 5705 5707 5709 5711 5713 5714 5716 5717 5718 5719 5720 5720 5721 5722 5723 5723 5724 5724 5724 5724 5723 5723 5722 5721 5719 5718 5716 5714 5712 5709 5707 5704 5700 5697 5693 5690 5686 5682 5679 5675 5670
5698 5700 5702 5704 5706 5708 5710 5712 5713 5715 5716 5717 5718 5718 5719 5720 5720 5720 5721 5721 5720 5720 5719 5718 5717 5716 5715 5713 5711 5709 5707 5704 5701 5698 5694 5691 5687 5683 5680 5676 5672 5668 5664 5660
5696 5699 5701 5704 5706 5708 5709 5711 5712 5714 5714 5715 5716 5717 5717 5717 5717 5717 5717 5717 5716 5715 5714 5713 5712 5710 5708 5706 5704 5701 5699 5695 5692 5689 5685 5681 5678 5674 5670 5666 5663 5659 5655 5651
5695 5697 5700 5702 5704 5706 5708 5709 5710 5712 5712 5713 5714 5714 5714 5714 5714 5714 5713 5712 5711 5710 5709 5707 5706 5703 5701 5698 5696 5693 5690 5686 5683 5679 5676 5672 5668 5665 5661 5658 5654 5650 5646 5643
5694 5696 5698 5701 5703 5704 5706 5707 5708 5709 5710 5710 5711 5711 5711 5711 5710 5709 5708 5707 5706 5704 5702 5700 5698 5696 5693 5690 5687 5684 5680 5677 5674 5670 5667 5664 5660 5657 5653 5650 5646 5642 5638 5635
5693 5695 5697 5699 5701 5703 5704 5705 5706 5707 5707 5707 5707 5707 5706 5706 5705 5704 5703 5701 5699 5697 5695 5693 5690 5687 5684 5681 5678 5675 5671 5668 5665 5662 5659 5655 5652 5649 5645 5642 5638 5635 5632 5628
5693 5695 5696 5698 5699 5701 5702 5702 5703 5703 5703 5703 5703 5702 5701 5700 5699 5698 5696 5694 5692 5690 5687 5685 5682 5679 5676 5673 5670 5666 5663 5660 5657 5654 5651 5648 5644 5641 5638 5635 5632 5628 5625 5622